Weather History for CWZQ - December, 2011

Change the Weather History Date:

Sunday, December 25, 2011

  Actual Average Record
Temperature  
Mean Temperature 22 °F -  
Max Temperature 24 °F - - ()
Min Temperature 20 °F - - ()
Degree Days  
Heating Degree Days 43    
Moisture  
Dew Point 16 °F    
Average Humidity 76    
Maximum Humidity 92    
Minimum Humidity 66    
Precipitation  
Precipitation 0.00 in - - ()
Sea Level Pressure  
Sea Level Pressure 30.29 in    
Wind  
Wind Speed 15 mph ()    
Max Wind Speed 26 mph    
Max Gust Speed 31 mph    
T = Trace of Precipitation, MM = Missing Value Source: Averaged Metar Reports

Daily Weather History Graph

Daily Weather History Graph

Search for Another Location

Airport or City:

Trip Planner

Search our weather history database for the weather conditions in past years. The results will help you decide how hot, cold, wet, or windy it might be!

Date:

Astronomy

Dec. 25, 2011 Rise Set
Actual Time 7:46 AM AST 4:21 PM AST
Civil Twilight 7:11 AM AST 4:56 PM AST
Nautical Twilight 6:33 AM AST 5:35 PM AST
Astronomical Twilight 5:56 AM AST 6:11 PM AST
Moon 8:18 AM AST (12/25) 5:40 PM AST (12/25)
Length of Visible Light 9h 44m
Length of Day
8h 34m
New Moon, 1% of the Moon is Illuminated
Dec 25
New Moon
Jan 1
First Quarter
Jan 9
Full
Jan 16
Last Quarter
Jan 23
New

Hourly Weather History & Observations

Time (AST) Temp. Windchill Dew Point Humidity Pressure Visibility Wind Dir Wind Speed Gust Speed Precip Events Conditions
12:00 AM 22.1 °F 5.1 °F 16.5 °F 79% 30.30 in - NW 26.5 mph - N/A   Unknown
12:20 AM 22.5 °F 6.5 °F 18.5 °F 85% - - NW 23.0 mph 31.1 mph N/A   Unknown
12:40 AM 21.7 °F 5.9 °F 19.4 °F 91% - - NNW 21.9 mph 27.6 mph N/A   Unknown
1:00 AM 22.6 °F 6.1 °F 17.6 °F 81% 30.30 in - NW 25.3 mph - N/A   Unknown
1:20 AM 23.4 °F 7.4 °F 16.9 °F 76% - - NW 24.2 mph - N/A   Unknown
1:40 AM 23.2 °F 8.2 °F 15.1 °F 71% - - NW 20.7 mph 27.6 mph N/A   Unknown
2:00 AM 23.4 °F 7.1 °F 16.2 °F 74% 30.31 in - NW 25.3 mph - N/A   Unknown
2:20 AM 23.0 °F 7.2 °F 13.1 °F 66% - - NW 23.0 mph 31.1 mph N/A   Unknown
2:40 AM 23.0 °F 8.3 °F 14.7 °F 71% - - NW 19.6 mph 26.5 mph N/A   Unknown
3:00 AM 23.5 °F 7.6 °F 18.0 °F 79% 30.31 in - NW 24.2 mph - N/A   Unknown
3:20 AM 23.5 °F 7.6 °F 18.0 °F 79% - - NW 24.2 mph 29.9 mph N/A   Unknown
3:40 AM 21.7 °F 5.9 °F 19.8 °F 92% - - NW 21.9 mph 28.8 mph N/A   Unknown
4:00 AM 22.5 °F 5.9 °F 19.0 °F 87% 30.31 in - NNW 25.3 mph - N/A   Unknown
4:20 AM 22.6 °F 7.5 °F 17.2 °F 80% - - NW 20.7 mph 27.6 mph N/A   Unknown
4:40 AM 22.8 °F 8.1 °F 17.2 °F 79% - - NNW 19.6 mph - N/A   Unknown
5:00 AM 22.1 °F 6.4 °F 19.0 °F 88% 30.31 in - NW 21.9 mph - N/A   Unknown
5:20 AM 23.0 °F 8.3 °F 15.3 °F 72% - - NW 19.6 mph - N/A   Unknown
5:40 AM 23.0 °F 9.2 °F 13.8 °F 68% - - NW 17.3 mph - N/A   Unknown
6:00 AM 23.5 °F 9.0 °F 16.2 °F 73% 30.32 in - NW 19.6 mph - N/A   Unknown
6:20 AM 22.6 °F 10.1 °F 15.6 °F 74% - - NNW 13.8 mph 23.0 mph N/A   Unknown
6:40 AM 22.8 °F 8.5 °F 13.8 °F 68% - - NNW 18.4 mph 25.3 mph N/A   Unknown
7:00 AM 23.0 °F 8.3 °F 14.7 °F 71% 30.35 in - NNW 19.6 mph - N/A   Unknown
7:20 AM 22.8 °F 8.1 °F 14.7 °F 71% - - NW 19.6 mph 25.3 mph N/A   Unknown
7:40 AM 22.8 °F 9.4 °F 13.5 °F 67% - - NW 16.1 mph 23.0 mph N/A   Unknown
8:00 AM 22.5 °F 7.2 °F 13.6 °F 69% 30.34 in - NW 20.7 mph - N/A   Unknown
8:20 AM 22.8 °F 10.9 °F 15.6 °F 74% - - NW 12.7 mph 19.6 mph N/A   Unknown
8:40 AM 23.2 °F 10.3 °F 16.7 °F 76% - - NNW 15.0 mph - N/A   Unknown
9:00 AM 22.3 °F 9.2 °F 16.7 °F 79% 30.35 in - NNW 15.0 mph - N/A   Unknown
9:20 AM 22.1 °F 12.8 °F 16.0 °F 77% - - North 8.1 mph - N/A   Unknown
9:40 AM 21.9 °F 13.4 °F 16.0 °F 78% - - NNE 6.9 mph - N/A   Unknown
10:00 AM 21.6 °F 10.6 °F 15.3 °F 77% 30.37 in - NNE 10.4 mph - N/A   Unknown
10:20 AM 21.2 °F 16.4 °F 15.1 °F 77% - - ENE 3.5 mph - N/A   Unknown
10:40 AM 21.4 °F 11.9 °F 15.6 °F 78% - - ENE 8.1 mph - N/A   Unknown
11:00 AM 21.6 °F 11.3 °F 16.2 °F 80% 30.35 in - East 9.2 mph - N/A   Unknown
11:20 AM 21.7 °F 14.3 °F 16.2 °F 79% - - NE 5.8 mph - N/A   Unknown
11:40 AM 21.6 °F 13.0 °F 16.5 °F 81% - - East 6.9 mph - N/A   Unknown
12:00 PM 22.1 °F 12.8 °F 16.5 °F 79% 30.32 in - ENE 8.1 mph - N/A   Unknown
12:20 PM 22.3 °F 17.6 °F 16.2 °F 77% - - ESE 3.5 mph - N/A   Unknown
12:40 PM 23.0 °F 18.4 °F 15.6 °F 73% - - East 3.5 mph - N/A   Unknown
1:00 PM 23.4 °F 16.2 °F 15.3 °F 71% 30.31 in - ENE 5.8 mph - N/A   Unknown
1:20 PM 23.7 °F - 15.4 °F 71% - - East 1.2 mph - N/A   Unknown
1:40 PM 24.3 °F - 15.8 °F 70% - - Calm Calm - N/A   Unknown
2:00 PM 24.4 °F - 15.8 °F 70% 30.28 in - ESE 2.3 mph - N/A   Unknown
2:20 PM 24.6 °F 17.7 °F 16.9 °F 72% - - NW 5.8 mph - N/A   Unknown
2:40 PM 24.4 °F 18.6 °F 16.0 °F 70% - - NNW 4.6 mph - N/A   Unknown
3:20 PM 24.1 °F - 15.4 °F 70% - - ESE 2.3 mph - N/A   Unknown
3:40 PM 23.4 °F 17.4 °F 16.9 °F 76% - - South 4.6 mph - N/A   Unknown
4:00 PM 22.5 °F 15.1 °F 17.8 °F 82% 30.27 in - South 5.8 mph - N/A   Unknown
4:20 PM 21.9 °F 15.7 °F 18.5 °F 87% - - South 4.6 mph - N/A   Unknown
4:40 PM 21.7 °F 15.5 °F 18.5 °F 87% - - SSE 4.6 mph - N/A   Unknown
5:00 PM 21.6 °F 14.0 °F 18.1 °F 87% 30.26 in - SSE 5.8 mph - N/A   Unknown
5:20 PM 21.6 °F 12.1 °F 18.9 °F 89% - - SSE 8.1 mph - N/A   Unknown
5:40 PM 21.2 °F 14.9 °F 19.0 °F 91% - - SE 4.6 mph - N/A   Unknown
6:00 PM 21.9 °F 12.5 °F 18.9 °F 88% 30.25 in - SSE 8.1 mph - N/A   Unknown
6:20 PM 22.5 °F 12.4 °F 16.9 °F 79% - - SSE 9.2 mph - N/A   Unknown
6:40 PM 22.8 °F 12.2 °F 16.0 °F 75% - - South 10.4 mph - N/A   Unknown
7:00 PM 22.5 °F 11.7 °F 16.0 °F 76% 30.24 in - South 10.4 mph - N/A   Unknown
7:20 PM 22.3 °F 13.0 °F 16.5 °F 79% - - SSE 8.1 mph - N/A   Unknown
7:40 PM 22.1 °F 12.8 °F 15.8 °F 77% - - South 8.1 mph - N/A   Unknown
8:00 PM 22.3 °F 10.8 °F 14.2 °F 71% 30.22 in - South 11.5 mph - N/A   Unknown
8:20 PM 22.3 °F 11.5 °F 13.3 °F 68% - - SSE 10.4 mph - N/A   Unknown
8:40 PM 21.9 °F 11.0 °F 14.2 °F 72% - - South 10.4 mph - N/A   Unknown
9:00 PM 22.1 °F 10.6 °F 14.0 °F 71% 30.21 in - SSE 11.5 mph - N/A   Unknown
9:20 PM 22.1 °F 10.6 °F 13.1 °F 68% - - South 11.5 mph 18.4 mph N/A   Unknown
9:40 PM 21.6 °F 9.3 °F 12.6 °F 68% - - South 12.7 mph 19.6 mph N/A   Unknown
10:00 PM 21.0 °F 8.6 °F 13.3 °F 72% 30.18 in - SSE 12.7 mph - N/A   Unknown
10:20 PM 20.7 °F 10.2 °F 13.3 °F 73% - - South 9.2 mph - N/A   Unknown
10:40 PM 20.8 °F 8.4 °F 13.6 °F 74% - - South 12.7 mph - N/A   Unknown
11:20 PM 20.3 °F 9.0 °F 13.6 °F 75% - - South 10.4 mph - N/A   Unknown
11:40 PM 20.7 °F 7.6 °F 13.1 °F 73% - - South 13.8 mph - N/A   Unknown